• In Deutschland
  • Länderverzeichnis
  • Für 7 Tage
  • Wassertemperatur
  • Satellitenkarten
  • Wetterkarte
  • Widgets
  • user-avatar
    Anmelden

    Stündliche Wetter Meerbusch

    Heute, 24 September, Montag

    Zeit Temperatur Niederschläge Wind Luftdruck Luftfeuchtigkeit
    00:00 +8°C° 0 mm 2 m/S 766 mmHg 85%
    01:00 +8°C° 0 mm 2 m/S 766 mmHg 85%
    02:00 +8°C° 0 mm 3 m/S 767 mmHg 85%
    03:00 +8°C° 0 mm 3 m/S 768 mmHg 85%
    04:00 +8°C° 0 mm 3 m/S 768 mmHg 85%
    05:00 +8°C° 0 mm 3 m/S 769 mmHg 85%
    06:00 +7°C° 0 mm 3 m/S 769 mmHg 85%
    07:00 +9°C° 0 mm 3 m/S 770 mmHg 78%
    08:00 +11°C° 0 mm 4 m/S 770 mmHg 71%
    09:00 +13°C° 0 mm 4 m/S 771 mmHg 64%
    10:00 +13°C° 0.1 mm 4 m/S 771 mmHg 59%
    11:00 +14°C° 0.1 mm 4 m/S 771 mmHg 55%
    12:00 +15°C° 0.1 mm 5 m/S 771 mmHg 50%
    13:00 +15°C° 0.1 mm 5 m/S 771 mmHg 49%
    14:00 +15°C° 0.1 mm 5 m/S 771 mmHg 48%
    15:00 +15°C° 0.1 mm 5 m/S 771 mmHg 48%
    16:00 +14°C° 0 mm 4 m/S 772 mmHg 52%
    17:00 +12°C° 0 mm 4 m/S 772 mmHg 57%
    18:00 +11°C° 0 mm 3 m/S 773 mmHg 62%
    19:00 +10°C° 0 mm 2 m/S 773 mmHg 66%
    20:00 +10°C° 0 mm 2 m/S 773 mmHg 69%
    21:00 +9°C° 0 mm 2 m/S 774 mmHg 73%
    22:00 +10°C° 0 mm 1 m/S 774 mmHg 75%
    23:00 +9°C° 0 mm 1 m/S 774 mmHg 77%

    Morgen, 25 September, Dienstag

    Zeit Temperatur Niederschläge Wind Luftdruck Luftfeuchtigkeit
    00:00 +9°C° 0 mm 1 m/S 774 mmHg 79%
    01:00 +9°C° 0 mm 1 m/S 775 mmHg 80%
    02:00 +7°C° 0 mm 0 m/S 775 mmHg 81%
    03:00 +7°C° 0 mm 0 m/S 775 mmHg 83%
    04:00 +7°C° 0 mm 0 m/S 775 mmHg 83%
    05:00 +7°C° 0 mm 0 m/S 775 mmHg 83%
    06:00 +7°C° 0 mm 0 m/S 775 mmHg 83%
    07:00 +9°C° 0 mm 0 m/S 775 mmHg 75%
    08:00 +11°C° 0 mm 0 m/S 776 mmHg 67%
    09:00 +13°C° 0 mm 0 m/S 776 mmHg 59%
    10:00 +15°C° 0 mm 1 m/S 776 mmHg 54%
    11:00 +16°C° 0 mm 1 m/S 775 mmHg 49%
    12:00 +18°C° 0 mm 1 m/S 775 mmHg 44%
    13:00 +18°C° 0 mm 1 m/S 775 mmHg 43%
    14:00 +18°C° 0 mm 1 m/S 775 mmHg 43%
    15:00 +18°C° 0 mm 1 m/S 774 mmHg 42%
    16:00 +15°C° 0 mm 1 m/S 774 mmHg 46%
    17:00 +14°C° 0 mm 1 m/S 774 mmHg 50%
    18:00 +13°C° 0 mm 1 m/S 774 mmHg 53%
    19:00 +12°C° 0 mm 1 m/S 774 mmHg 55%
    20:00 +12°C° 0 mm 1 m/S 775 mmHg 57%
    21:00 +11°C° 0 mm 1 m/S 775 mmHg 59%
    22:00 +11°C° 0 mm 1 m/S 775 mmHg 60%
    23:00 +9°C° 0 mm 2 m/S 774 mmHg 60%

    übermorgen, 26 September, Mittwoch

    Zeit Temperatur Niederschläge Wind Luftdruck Luftfeuchtigkeit
    00:00 +9°C° 0 mm 2 m/S 774 mmHg 61%
    01:00 +9°C° 0 mm 2 m/S 774 mmHg 62%
    02:00 +8°C° 0 mm 2 m/S 774 mmHg 62%
    03:00 +8°C° 0 mm 2 m/S 773 mmHg 63%
    04:00 +8°C° 0 mm 2 m/S 773 mmHg 63%
    05:00 +8°C° 0 mm 2 m/S 773 mmHg 63%
    06:00 +8°C° 0 mm 2 m/S 773 mmHg 63%
    07:00 +10°C° 0 mm 2 m/S 773 mmHg 57%
    08:00 +13°C° 0 mm 2 m/S 773 mmHg 51%
    09:00 +14°C° 0 mm 2 m/S 773 mmHg 46%
    10:00 +16°C° 0 mm 2 m/S 773 mmHg 42%
    11:00 +17°C° 0 mm 2 m/S 772 mmHg 38%
    12:00 +19°C° 0 mm 2 m/S 772 mmHg 34%
    13:00 +19°C° 0 mm 2 m/S 772 mmHg 35%
    14:00 +19°C° 0 mm 2 m/S 771 mmHg 35%
    15:00 +20°C° 0 mm 2 m/S 771 mmHg 35%
    16:00 +18°C° 0 mm 2 m/S 771 mmHg 40%
    17:00 +18°C° 0 mm 1 m/S 771 mmHg 44%
    18:00 +15°C° 0 mm 1 m/S 771 mmHg 48%
    19:00 +15°C° 0 mm 1 m/S 771 mmHg 50%
    20:00 +14°C° 0 mm 1 m/S 771 mmHg 51%
    21:00 +14°C° 0 mm 1 m/S 772 mmHg 53%
    22:00 +14°C° 0 mm 1 m/S 771 mmHg 54%
    23:00 +13°C° 0 mm 1 m/S 771 mmHg 55%

    27 September, Donnerstag

    Zeit Temperatur Niederschläge Wind Luftdruck Luftfeuchtigkeit
    00:00 +13°C° 0 mm 1 m/S 771 mmHg 56%
    01:00 +13°C° 0 mm 1 m/S 771 mmHg 56%
    02:00 +12°C° 0 mm 1 m/S 771 mmHg 57%
    03:00 +12°C° 0 mm 1 m/S 771 mmHg 57%
    04:00 +12°C° 0 mm 1 m/S 771 mmHg 58%
    05:00 +12°C° 0 mm 1 m/S 771 mmHg 58%
    06:00 +12°C° 0 mm 1 m/S 770 mmHg 59%
    07:00 +14°C° 0 mm 1 m/S 770 mmHg 54%
    08:00 +16°C° 0 mm 1 m/S 770 mmHg 50%
    09:00 +18°C° 0 mm 2 m/S 770 mmHg 45%
    10:00 +19°C° 0 mm 2 m/S 770 mmHg 41%
    11:00 +21°C° 0 mm 2 m/S 769 mmHg 38%
    12:00 +23°C° 0 mm 2 m/S 769 mmHg 34%
    13:00 +23°C° 0 mm 2 m/S 768 mmHg 35%
    14:00 +24°C° 0 mm 2 m/S 768 mmHg 35%
    15:00 +24°C° 0 mm 2 m/S 767 mmHg 36%
    16:00 +22°C° 0 mm 1 m/S 767 mmHg 41%
    17:00 +20°C° 0 mm 1 m/S 766 mmHg 46%
    18:00 +18°C° 0 mm 1 m/S 766 mmHg 51%
    19:00 +18°C° 0 mm 1 m/S 766 mmHg 53%
    20:00 +16°C° 0 mm 1 m/S 766 mmHg 56%
    21:00 +15°C° 0 mm 2 m/S 766 mmHg 59%
    22:00 +15°C° 0 mm 2 m/S 765 mmHg 61%
    23:00 +14°C° 0 mm 2 m/S 765 mmHg 64%

    28 September, Freitag

    Zeit Temperatur Niederschläge Wind Luftdruck Luftfeuchtigkeit
    00:00 +14°C° 0 mm 2 m/S 765 mmHg 67%
    01:00 +13°C° 0 mm 2 m/S 764 mmHg 69%
    02:00 +13°C° 0 mm 2 m/S 764 mmHg 71%
    03:00 +12°C° 0 mm 2 m/S 763 mmHg 73%
    04:00 +12°C° 0 mm 2 m/S 763 mmHg 74%
    05:00 +12°C° 0 mm 2 m/S 763 mmHg 75%
    06:00 +11°C° 0 mm 1 m/S 763 mmHg 75%
    07:00 +13°C° 0 mm 2 m/S 764 mmHg 70%
    08:00 +15°C° 0 mm 2 m/S 764 mmHg 65%
    09:00 +17°C° 0 mm 2 m/S 764 mmHg 60%
    10:00 +18°C° 0 mm 3 m/S 764 mmHg 60%
    11:00 +19°C° 0 mm 3 m/S 764 mmHg 59%
    12:00 +19°C° 0 mm 4 m/S 764 mmHg 58%
    13:00 +18°C° 0 mm 4 m/S 765 mmHg 60%
    14:00 +17°C° 0 mm 5 m/S 765 mmHg 63%
    15:00 +16°C° 0 mm 5 m/S 765 mmHg 65%
    16:00 +15°C° 0 mm 5 m/S 766 mmHg 65%
    17:00 +14°C° 0 mm 4 m/S 766 mmHg 65%
    18:00 +13°C° 0 mm 4 m/S 767 mmHg 65%
    19:00 +12°C° 0 mm 4 m/S 768 mmHg 67%
    20:00 +11°C° 0 mm 4 m/S 768 mmHg 68%
    21:00 +10°C° 0 mm 3 m/S 769 mmHg 70%
    22:00 +10°C° 0 mm 3 m/S 769 mmHg 72%
    23:00 +9°C° 0 mm 3 m/S 769 mmHg 75%

    29 September, Samstag

    Zeit Temperatur Niederschläge Wind Luftdruck Luftfeuchtigkeit
    00:00 +8°C° 0 mm 3 m/S 769 mmHg 78%
    01:00 +8°C° 0 mm 3 m/S 769 mmHg 79%
    02:00 +8°C° 0 mm 2 m/S 769 mmHg 81%
    03:00 +7°C° 0 mm 2 m/S 770 mmHg 83%
    04:00 +7°C° 0 mm 2 m/S 770 mmHg 83%
    05:00 +7°C° 0 mm 2 m/S 770 mmHg 83%
    06:00 +7°C° 0 mm 2 m/S 770 mmHg 84%
    07:00 +9°C° 0 mm 2 m/S 770 mmHg 75%
    08:00 +10°C° 0 mm 3 m/S 770 mmHg 66%
    09:00 +12°C° 0 mm 3 m/S 770 mmHg 57%
    10:00 +13°C° 0 mm 3 m/S 770 mmHg 52%
    11:00 +14°C° 0 mm 4 m/S 769 mmHg 47%
    12:00 +15°C° 0 mm 4 m/S 769 mmHg 42%
    13:00 +15°C° 0 mm 4 m/S 768 mmHg 42%
    14:00 +17°C° 0 mm 4 m/S 768 mmHg 41%
    15:00 +17°C° 0 mm 4 m/S 767 mmHg 40%
    16:00 +14°C° 0 mm 4 m/S 767 mmHg 44%
    17:00 +13°C° 0 mm 3 m/S 767 mmHg 48%
    18:00 +12°C° 0 mm 3 m/S 767 mmHg 52%
    19:00 +11°C° 0 mm 3 m/S 767 mmHg 54%
    20:00 +11°C° 0 mm 3 m/S 767 mmHg 57%
    21:00 +10°C° 0 mm 3 m/S 767 mmHg 59%
    22:00 +10°C° 0 mm 3 m/S 767 mmHg 61%
    23:00 +9°C° 0 mm 2 m/S 767 mmHg 62%
    Mehr zeigen